View from above orbital plane
|
View from above satellite
|
Ground track
|
The orbit data is extracted from the following two-line orbital elements,
1 23439U 94085A 21015.97864564 -.00000037 00000-0 15882-3 0 9993
2 23439 64.8175 262.5573 0155988 2.6262 357.5448 11.27570029 73143
Epoch (UTC): | 15 January 2021 23:29:14 |
Eccentricity: | 0.0155988 |
inclination: | 64.8175° |
perigee height: | 1891 km |
apogee height: | 2153 km |
right ascension of ascending node: | 262.5573° |
argument of perigee: | 2.6262° |
revolutions per day: | 11.27570029 |
mean anomaly at epoch: | 357.5448° |
orbit number at epoch: | 7314 |
The dashed part of the orbit path shows where the satellite is in the earth's shadow,
|
|